Погода в Манахе

Йемен     15°04′14″N   43°44′25″E
темп.,
°C
ветер,
м/с
пор.,
м/с
влажн.,
%
обл.,
%
осадки,
мм/ч
давл.,
гПа
погр.,
м
27 ноября, сб
сб2700:00+20ююз11741 0.9 101796
03:00+20всв00670 1.3 101617
06:00+19в11640 0.0 101811
09:00+23ю01400 0.0 1018699
12:00+25з33393 0.0 10151737
15:00+25з435446 0.1 10141235
18:00+22з326716 1.3 1016553
21:00+21юз116690 3.5 1017104
28 ноября, вс
вс2800:00+21ююв11644 0.3 101780
03:00+20вюв11505 0.3 101614
06:00+19в22420 0.0 101823
09:00+22вюв22300 0.0 1019640
12:00+25зюз23230 0.0 10161761
15:00+26з43315 0.0 10131188
18:00+22з32600 0.0 1015661
21:00+21ю12680 0.2 1018270
29 ноября, пн
пн2900:00+21вюв22500 0.1 101765
03:00+19в22370 0.1 101721
06:00+18в32320 0.0 101822
09:00+21вюв22230 0.0 1019546
12:00+25зюз22180 0.0 10161671
15:00+26з42220 0.0 10131358
18:00+22з32520 0.0 1015733
21:00+20з11720 0.1 1018230
30 ноября, вт
вт3000:00+20юв11604 0.6 101772
03:00+19в22410 0.6 101623
06:00+17в32354 0.0 101826
09:00+21в222715 0.0 1018464
12:00+24з32210 0.0 10151562
15:00+24з42340 0.0 10131475
18:00+22з32520 0.0 1014867
21:00+20з11721 0.0 1016382
1 декабря, ср
ср100:00+19зюз01720 0.4 101596
03:00+19вюв11570 0.6 101530
06:00+17в22360 0.0 101623
09:00+20вюв22230 0.0 1016487
12:00+24зюз22190 0.0 10131582
15:00+24з43280 0.0 10111600
18:00+21з33545 0.0 1012968
21:00+19з117412 0.1 1015427